Baika, Sidi; Tagabou, Mohamed (2026): Radiosonde measurements from station Tamanrasset (2026-01) [dataset]. National Meteorological Office of Algeria, PANGAEA, https://doi.org/10.1594/PANGAEA.993050
Always quote citation above when using data! You can download the citation in several formats below.
Published: 2026-03-13 • DOI registered: 2026-04-11
Other version:
Baika, Sidi (2026): BSRN Station-to-archive file for station Tamanrasset (2026-01) [dataset]. ftp://ftp.bsrn.awi.de/tam/tam0126.dat.gz
Project(s):
Coverage:
Latitude: 22.790300 * Longitude: 5.529200
Date/Time Start: 2026-01-01T00:00:00 * Date/Time End: 2026-01-31T00:00:00
Minimum ALTITUDE: 0 m * Maximum ALTITUDE: 23742 m
Event(s):
TAM (Tamanrasset) * Latitude: 22.790300 * Longitude: 5.529200 * Date/Time: 2000-03-01T00:00:00 * Elevation: 1385.0 m * Location: Algeria * Method/Device: Monitoring station (MONS) * Comment: BSRN station no: 42; Surface type: desert, rock; Topography type: flat, rural; Horizon: doi:10.1594/PANGAEA.669526; Station scientist: Sidi BAIKA (s.baika@meteo.dz)
Comment:
Start location: Tamanrasset; Distance from radiation site: 10 km
Parameter(s):
| # | Name | Short Name | Unit | Principal Investigator | Method/Device | Comment |
|---|---|---|---|---|---|---|
| 1 | DATE/TIME | Date/Time | Baika, Sidi | Geocode | ||
| 2 | ALTITUDE | Altitude | m | Baika, Sidi | Geocode | |
| 3 | Pressure, at given altitude | PPPP | hPa | Baika, Sidi | Radiosonde, Vaisala, RS92 | |
| 4 | Temperature, air | TTT | °C | Baika, Sidi | Radiosonde, Vaisala, RS92 | |
| 5 | Dew/frost point | TdTdTd | °C | Baika, Sidi | Radiosonde, Vaisala, RS92 | |
| 6 | Wind direction | dd | deg | Baika, Sidi | Radiosonde, Vaisala, RS92 | |
| 7 | Wind speed | ff | m/s | Baika, Sidi | Radiosonde, Vaisala, RS92 |
License:
Status:
Curation Level: Enhanced curation (CurationLevelC)
Size:
3745 data points
Data
| 1 Date/Time | 2 Altitude [m] | 3 PPPP [hPa] | 4 TTT [°C] | 5 TdTdTd [°C] | 6 dd [deg] | 7 ff [m/s] |
|---|---|---|---|---|---|---|
| 2026-01-01T00:00 | 0 | 0 | 0.0 | 0.0 | 0 | 0 |
| 2026-01-01T00:00 | 1369 | 867 | 8.2 | 23.0 | 0 | 0 |
| 2026-01-01T00:00 | 1500 | 854 | 14.4 | -7.8 | 99 | 7 |
| 2026-01-01T00:00 | 1534 | 850 | 14.2 | -7.8 | 100 | 7 |
| 2026-01-01T00:00 | 2303 | 775 | 8.0 | -10.0 | 100 | 3 |
| 2026-01-01T00:00 | 2500 | 757 | 6.4 | -10.3 | 114 | 2 |
| 2026-01-01T00:00 | 4000 | 630 | 2.6 | -25.7 | 315 | 7 |
| 2026-01-01T00:00 | 4388 | 600 | -0.1 | -27.9 | 265 | 8 |
| 2026-01-01T00:00 | 5500 | 521 | -7.6 | -51.0 | 278 | 10 |
| 2026-01-01T00:00 | 7000 | 428 | -20.3 | -51.5 | 264 | 13 |
| 2026-01-01T00:00 | 7488 | 400 | -24.6 | -53.2 | 249 | 13 |
| 2026-01-01T00:00 | 9000 | 324 | -35.6 | -57.5 | 268 | 26 |
| 2026-01-01T00:00 | 10744 | 250 | -47.6 | -69.3 | 268 | 36 |
| 2026-01-01T00:00 | 11000 | 241 | -47.3 | -71.7 | 270 | 41 |
| 2026-01-01T00:00 | 13000 | 176 | -59.3 | -76.0 | 267 | 62 |
| 2026-01-01T00:00 | 14005 | 150 | -63.7 | -82.9 | 262 | 62 |
| 2026-01-01T00:00 | 15000 | 127 | -68.8 | -87.5 | 268 | 53 |
| 2026-01-01T00:00 | 16425 | 100 | -74.7 | -91.3 | 267 | 47 |
| 2026-01-01T00:00 | 17000 | 91 | -77.0 | -91.5 | 265 | 35 |
| 2026-01-01T00:00 | 17709 | 80 | -75.6 | -89.5 | 250 | 24 |
| 2026-01-01T00:00 | 18491 | 70 | -70.7 | -91.2 | 254 | 13 |
| 2026-01-01T00:00 | 19000 | 64 | -71.1 | -90.7 | 256 | 17 |
| 2026-01-01T00:00 | 20500 | 50 | -65.4 | -92.1 | 275 | 21 |
| 2026-01-01T00:00 | 22000 | 39 | -62.0 | -91.9 | 247 | 16 |
| 2026-01-01T00:00 | 23670 | 30 | -58.3 | -89.9 | 244 | 12 |
| 2026-01-02T00:00 | 1369 | 866 | 10.4 | 26.0 | 60 | 1 |
| 2026-01-02T00:00 | 1500 | 853 | 12.8 | -7.0 | 83 | 5 |
| 2026-01-02T00:00 | 1527 | 850 | 12.7 | -7.1 | 88 | 5 |
| 2026-01-02T00:00 | 2298 | 775 | 9.2 | -14.7 | 158 | 2 |
| 2026-01-02T00:00 | 2500 | 756 | 7.3 | -13.5 | 142 | 1 |
| 2026-01-02T00:00 | 4000 | 629 | -0.1 | -32.3 | 213 | 9 |
| 2026-01-02T00:00 | 4369 | 600 | -2.5 | -39.9 | 231 | 8 |
| 2026-01-02T00:00 | 5500 | 519 | -8.8 | -45.2 | 260 | 11 |
| 2026-01-02T00:00 | 7000 | 426 | -19.7 | -37.4 | 245 | 26 |
| 2026-01-02T00:00 | 7466 | 400 | -23.6 | -39.9 | 243 | 29 |
| 2026-01-02T00:00 | 9000 | 323 | -34.0 | -58.5 | 248 | 35 |
| 2026-01-02T00:00 | 10746 | 250 | -44.3 | -70.2 | 262 | 57 |
| 2026-01-02T00:00 | 11000 | 241 | -45.3 | -66.5 | 263 | 64 |
| 2026-01-02T00:00 | 13000 | 176 | -62.3 | -68.6 | 258 | 66 |
| 2026-01-02T00:00 | 13994 | 150 | -64.1 | -82.0 | 258 | 50 |
| 2026-01-02T00:00 | 15000 | 127 | -69.6 | -85.2 | 243 | 48 |
| 2026-01-02T00:00 | 16408 | 100 | -72.2 | -90.9 | 259 | 38 |
| 2026-01-02T00:00 | 17000 | 91 | -72.1 | -89.5 | 263 | 36 |
| 2026-01-02T00:00 | 17728 | 80 | -70.9 | -88.9 | 261 | 25 |
| 2026-01-02T00:00 | 18518 | 70 | -71.9 | -89.5 | 261 | 19 |
| 2026-01-02T00:00 | 19000 | 65 | -70.2 | -90.2 | 267 | 17 |
| 2026-01-02T00:00 | 20536 | 50 | -63.4 | -91.8 | 261 | 18 |
| 2026-01-02T00:00 | 22000 | 39 | -62.0 | -91.9 | 247 | 16 |
| 2026-01-02T00:00 | 23701 | 30 | -59.9 | -90.0 | 308 | 5 |
| 2026-01-03T00:00 | 1369 | 867 | 11.4 | 21.0 | 120 | 1 |
| 2026-01-03T00:00 | 1500 | 854 | 15.3 | -7.9 | 160 | 5 |
| 2026-01-03T00:00 | 1537 | 850 | 15.1 | -8.0 | 168 | 5 |
| 2026-01-03T00:00 | 2316 | 775 | 12.5 | -4.8 | 275 | 14 |
| 2026-01-03T00:00 | 2500 | 758 | 10.8 | -4.0 | 275 | 14 |
| 2026-01-03T00:00 | 4000 | 630 | 1.8 | -35.6 | 257 | 13 |
| 2026-01-03T00:00 | 4397 | 600 | -0.1 | -37.5 | 253 | 13 |
| 2026-01-03T00:00 | 5500 | 522 | -8.2 | -35.7 | 268 | 15 |
| 2026-01-03T00:00 | 7000 | 428 | -19.7 | -45.4 | 254 | 16 |
| 2026-01-03T00:00 | 7497 | 400 | -23.3 | -52.1 | 260 | 18 |
| 2026-01-03T00:00 | 9000 | 324 | -35.5 | -58.4 | 266 | 21 |
| 2026-01-03T00:00 | 10757 | 250 | -46.5 | -58.3 | 269 | 51 |
| 2026-01-03T00:00 | 11000 | 241 | -47.6 | -54.8 | 265 | 54 |
| 2026-01-03T00:00 | 13000 | 176 | -57.3 | -80.0 | 264 | 50 |
| 2026-01-03T00:00 | 14010 | 150 | -60.1 | -87.5 | 273 | 46 |
| 2026-01-03T00:00 | 15000 | 128 | -66.5 | -89.4 | 282 | 34 |
| 2026-01-03T00:00 | 16459 | 100 | -72.8 | -91.6 | 265 | 34 |
| 2026-01-03T00:00 | 17000 | 91 | -70.8 | -92.2 | 278 | 22 |
| 2026-01-03T00:00 | 17771 | 80 | -74.0 | -91.5 | 259 | 19 |
| 2026-01-03T00:00 | 18546 | 70 | -75.8 | -90.9 | 254 | 15 |
| 2026-01-03T00:00 | 19000 | 65 | -70.9 | -91.6 | 251 | 17 |
| 2026-01-03T00:00 | 20564 | 50 | -63.1 | -92.2 | 257 | 6 |
| 2026-01-03T00:00 | 22000 | 40 | -61.6 | -93.0 | 194 | 6 |
| 2026-01-03T00:00 | 23727 | 30 | -57.2 | -90.7 | 27 | 3 |
| 2026-01-04T00:00 | 1369 | 866 | 11.2 | 18.0 | 10 | 2 |
| 2026-01-04T00:00 | 1500 | 853 | 18.7 | -9.2 | 217 | 8 |
| 2026-01-04T00:00 | 1532 | 850 | 18.7 | -9.1 | 218 | 9 |
| 2026-01-04T00:00 | 2314 | 775 | 12.6 | -8.6 | 240 | 12 |
| 2026-01-04T00:00 | 2500 | 758 | 10.9 | -9.0 | 242 | 12 |
| 2026-01-04T00:00 | 4000 | 630 | -2.5 | -4.2 | 266 | 23 |
| 2026-01-04T00:00 | 4389 | 600 | -5.8 | -7.8 | 266 | 26 |
| 2026-01-04T00:00 | 5500 | 521 | -6.4 | -49.4 | 255 | 20 |
| 2026-01-04T00:00 | 7000 | 428 | -18.2 | -48.8 | 277 | 22 |
| 2026-01-04T00:00 | 7502 | 400 | -22.1 | -47.8 | 280 | 22 |
| 2026-01-04T00:00 | 9000 | 325 | -33.4 | -64.5 | 264 | 25 |
| 2026-01-04T00:00 | 10777 | 250 | -47.8 | -68.2 | 267 | 30 |
| 2026-01-04T00:00 | 11000 | 242 | -48.5 | -69.3 | 268 | 35 |
| 2026-01-04T00:00 | 13000 | 178 | -53.3 | -80.9 | 268 | 37 |
| 2026-01-04T00:00 | 14066 | 150 | -61.4 | -84.6 | 266 | 39 |
| 2026-01-04T00:00 | 15000 | 129 | -68.7 | -86.3 | 267 | 38 |
| 2026-01-04T00:00 | 16485 | 100 | -75.8 | -89.7 | 249 | 29 |
| 2026-01-04T00:00 | 17000 | 91 | -77.8 | -91.1 | 260 | 34 |
| 2026-01-04T00:00 | 17766 | 80 | -78.8 | -92.0 | 262 | 25 |
| 2026-01-04T00:00 | 18539 | 70 | -71.9 | -89.6 | 261 | 18 |
| 2026-01-04T00:00 | 19000 | 65 | -68.8 | -89.5 | 218 | 10 |
| 2026-01-04T00:00 | 20563 | 50 | -62.7 | -89.9 | 211 | 3 |
| 2026-01-04T00:00 | 22000 | 40 | -61.2 | -89.2 | 192 | 2 |
| 2026-01-04T00:00 | 23742 | 30 | -59.0 | -88.3 | 128 | 4 |
| 2026-01-05T00:00 | 1369 | 865 | 14.7 | 22.0 | 130 | 3 |
| 2026-01-05T00:00 | 1500 | 852 | 19.6 | -5.3 | 210 | 4 |
| 2026-01-05T00:00 | 1522 | 850 | 20.3 | -4.2 | 216 | 5 |
| 2026-01-05T00:00 | 2308 | 775 | 13.5 | -5.3 | 227 | 9 |
| 2026-01-05T00:00 | 2500 | 758 | 11.7 | -5.7 | 219 | 11 |
| 2026-01-05T00:00 | 4000 | 631 | -0.7 | -4.6 | 265 | 18 |
| 2026-01-05T00:00 | 4394 | 600 | -3.9 | -5.6 | 262 | 16 |
| 2026-01-05T00:00 | 5500 | 521 | -11.3 | -12.7 | 267 | 22 |
| 2026-01-05T00:00 | 7000 | 427 | -20.0 | -25.8 | 251 | 32 |
| 2026-01-05T00:00 | 7486 | 400 | -23.2 | -31.0 | 239 | 35 |
| 2026-01-05T00:00 | 9000 | 324 | -33.5 | -51.6 | 243 | 48 |
| 2026-01-05T00:00 | 10774 | 250 | -44.7 | -70.5 | 249 | 41 |
| 2026-01-05T00:00 | 10777 | 250 | -47.8 | -68.2 | 267 | 30 |
| 2026-01-05T00:00 | 11000 | 242 | -45.1 | -71.9 | 249 | 40 |
| 2026-01-05T00:00 | 13000 | 178 | -54.0 | -80.9 | 250 | 33 |
| 2026-01-05T00:00 | 14080 | 150 | -60.8 | -84.9 | 247 | 29 |
| 2026-01-05T00:00 | 15000 | 129 | -67.5 | -86.7 | 239 | 27 |
| 2026-01-05T00:00 | 16501 | 100 | -76.2 | -90.1 | 268 | 29 |
| 2026-01-05T00:00 | 17000 | 92 | -76.7 | -91.5 | 275 | 23 |
| 2026-01-05T00:00 | 17786 | 80 | -76.5 | -91.6 | 230 | 19 |
| 2026-01-05T00:00 | 18561 | 70 | -72.8 | -89.9 | 275 | 9 |
| 2026-01-05T00:00 | 19000 | 65 | -73.2 | -89.8 | 253 | 11 |
| 2026-01-05T00:00 | 20563 | 50 | -68.0 | -90.1 | 186 | 6 |
| 2026-01-05T00:00 | 22000 | 40 | -60.5 | -90.1 | 80 | 5 |
| 2026-01-06T00:00 | 1369 | 865 | 16.8 | 21.0 | 40 | 1 |
| 2026-01-06T00:00 | 1500 | 852 | 19.4 | -2.2 | 228 | 4 |
| 2026-01-06T00:00 | 1520 | 850 | 19.5 | -2.3 | 229 | 4 |
| 2026-01-06T00:00 | 2307 | 775 | 14.1 | -4.2 | 228 | 17 |
| 2026-01-06T00:00 | 2500 | 757 | 12.4 | -4.3 | 232 | 15 |
| 2026-01-06T00:00 | 4000 | 630 | -1.6 | -6.0 | 247 | 20 |
| 2026-01-06T00:00 | 4391 | 600 | -4.8 | -5.7 | 248 | 21 |
| 2026-01-06T00:00 | 5500 | 520 | -10.3 | -11.1 | 262 | 27 |
| 2026-01-06T00:00 | 7000 | 427 | -21.2 | -39.6 | 244 | 38 |
| 2026-01-06T00:00 | 7470 | 400 | -23.6 | -36.7 | 241 | 39 |
| 2026-01-06T00:00 | 9000 | 324 | -30.3 | -35.8 | 261 | 46 |
| 2026-01-06T00:00 | 10779 | 250 | -44.9 | -49.5 | 254 | 53 |
| 2026-01-06T00:00 | 11000 | 242 | -47.0 | -51.1 | 254 | 54 |
| 2026-01-06T00:00 | 13000 | 177 | -58.0 | -75.0 | 263 | 44 |
| 2026-01-06T00:00 | 14033 | 150 | -59.6 | -77.7 | 250 | 41 |
| 2026-01-06T00:00 | 15000 | 128 | -66.7 | -82.6 | 249 | 40 |
| 2026-01-06T00:00 | 16467 | 100 | -75.4 | -87.6 | 258 | 31 |
| 2026-01-06T00:00 | 17000 | 91 | -77.0 | -89.0 | 258 | 29 |
| 2026-01-06T00:00 | 17750 | 80 | -76.3 | -88.5 | 243 | 27 |
| 2026-01-06T00:00 | 18529 | 70 | -68.6 | -85.2 | 242 | 7 |
| 2026-01-06T00:00 | 19000 | 65 | -69.7 | -85.6 | 177 | 8 |
| 2026-01-06T00:00 | 20556 | 50 | -65.3 | -83.8 | 216 | 6 |
| 2026-01-06T00:00 | 22000 | 40 | -62.2 | -83.2 | 122 | 7 |
| 2026-01-06T00:00 | 23705 | 30 | -60.9 | -83.0 | 98 | 9 |
| 2026-01-07T00:00 | 1369 | 868 | 17.2 | 37.0 | 340 | 3 |
| 2026-01-07T00:00 | 1500 | 855 | 16.4 | 3.2 | 311 | 8 |
| 2026-01-07T00:00 | 1552 | 850 | 16.0 | 3.3 | 310 | 9 |
| 2026-01-07T00:00 | 2331 | 775 | 12.5 | 3.7 | 276 | 17 |
| 2026-01-07T00:00 | 2500 | 760 | 11.3 | 3.4 | 270 | 19 |
| 2026-01-07T00:00 | 4000 | 632 | -0.5 | -6.4 | 233 | 17 |
| 2026-01-07T00:00 | 4418 | 600 | -2.2 | -5.6 | 221 | 22 |
| 2026-01-07T00:00 | 5500 | 523 | -7.5 | -9.5 | 237 | 26 |
| 2026-01-07T00:00 | 7000 | 430 | -17.7 | -23.0 | 231 | 35 |
| 2026-01-07T00:00 | 7532 | 400 | -21.4 | -27.7 | 233 | 38 |
| 2026-01-07T00:00 | 9000 | 327 | -31.8 | -35.7 | 244 | 33 |
| 2026-01-07T00:00 | 10831 | 250 | -46.3 | -52.3 | 235 | 40 |
| 2026-01-07T00:00 | 11000 | 244 | -47.8 | -52.7 | 237 | 40 |
| 2026-01-07T00:00 | 13000 | 178 | -59.6 | -76.1 | 229 | 46 |
| 2026-01-07T00:00 | 14082 | 150 | -59.6 | -80.8 | 239 | 39 |
| 2026-01-07T00:00 | 15000 | 129 | -66.8 | -85.5 | 247 | 35 |
| 2026-01-07T00:00 | 16523 | 100 | -76.0 | -88.4 | 236 | 24 |
| 2026-01-07T00:00 | 17000 | 92 | -74.3 | -89.8 | 225 | 24 |
| 2026-01-07T00:00 | 17809 | 80 | -78.4 | -90.7 | 250 | 19 |
| 2026-01-07T00:00 | 18590 | 70 | -72.4 | -88.5 | 304 | 11 |
| 2026-01-07T00:00 | 19000 | 65 | -72.5 | -87.9 | 211 | 8 |
| 2026-01-07T00:00 | 20599 | 50 | -65.0 | -88.0 | 142 | 9 |
| 2026-01-07T00:00 | 22000 | 40 | -64.5 | -88.3 | 94 | 8 |
| 2026-01-07T00:00 | 23734 | 30 | -60.2 | -86.9 | 48 | 9 |
| 2026-01-08T00:00 | 1369 | 870 | 14.6 | 33.0 | 11 | 2 |
| 2026-01-08T00:00 | 1500 | 857 | 16.6 | -0.4 | 94 | 5 |
| 2026-01-08T00:00 | 1570 | 850 | 16.2 | -0.3 | 95 | 6 |
| 2026-01-08T00:00 | 2350 | 775 | 12.8 | 1.0 | 256 | 6 |
| 2026-01-08T00:00 | 2500 | 761 | 11.6 | 0.8 | 265 | 7 |
| 2026-01-08T00:00 | 4000 | 635 | 3.5 | -10.8 | 274 | 13 |
| 2026-01-08T00:00 | 4452 | 600 | 2.5 | -15.8 | 247 | 16 |
| 2026-01-08T00:00 | 5500 | 526 | -6.1 | -12.8 | 242 | 15 |
| 2026-01-08T00:00 | 7000 | 432 | -16.8 | -33.1 | 244 | 25 |
| 2026-01-08T00:00 | 7580 | 400 | -20.1 | -31.5 | 242 | 29 |
| 2026-01-08T00:00 | 9000 | 329 | -31.2 | -45.9 | 254 | 30 |
| 2026-01-08T00:00 | 10878 | 250 | -46.0 | -48.9 | 233 | 40 |
| 2026-01-08T00:00 | 11000 | 245 | -47.1 | -50.8 | 232 | 39 |
| 2026-01-08T00:00 | 13000 | 179 | -62.9 | -68.9 | 225 | 49 |
| 2026-01-08T00:00 | 14119 | 150 | -60.0 | -84.7 | 242 | 45 |
| 2026-01-08T00:00 | 15000 | 130 | -66.3 | -86.9 | 241 | 42 |
| 2026-01-08T00:00 | 16550 | 100 | -75.7 | -90.4 | 266 | 27 |
| 2026-01-08T00:00 | 17000 | 93 | -74.8 | -91.3 | 274 | 18 |
| 2026-01-08T00:00 | 17844 | 80 | -71.7 | -90.9 | 225 | 10 |
| 2026-01-08T00:00 | 18623 | 70 | -76.2 | -90.8 | 204 | 10 |
| 2026-01-08T00:00 | 19000 | 66 | -74.7 | -90.6 | 225 | 7 |
| 2026-01-08T00:00 | 20609 | 50 | -66.7 | -91.2 | 84 | 8 |
| 2026-01-08T00:00 | 22000 | 40 | -63.7 | -90.9 | 102 | 8 |
| 2026-01-08T00:00 | 23722 | 30 | -64.1 | -91.6 | 81 | 6 |
| 2026-01-09T00:00 | 1369 | 869 | 12.0 | 38.0 | 340 | 2 |
| 2026-01-09T00:00 | 1500 | 856 | 16.6 | 0.8 | 316 | 6 |
| 2026-01-09T00:00 | 1559 | 850 | 16.3 | 0.9 | 323 | 6 |
| 2026-01-09T00:00 | 2339 | 775 | 12.8 | -5.7 | 344 | 11 |
| 2026-01-09T00:00 | 2500 | 760 | 11.9 | -3.5 | 332 | 10 |
| 2026-01-09T00:00 | 4000 | 634 | 3.5 | -14.2 | 217 | 9 |
| 2026-01-09T00:00 | 4443 | 600 | 0.3 | -18.5 | 231 | 9 |
| 2026-01-09T00:00 | 5500 | 525 | -6.6 | -19.2 | 226 | 17 |
| 2026-01-09T00:00 | 7000 | 431 | -17.0 | -19.7 | 243 | 25 |
| 2026-01-09T00:00 | 7563 | 400 | -21.0 | -23.8 | 241 | 27 |
| 2026-01-09T00:00 | 9000 | 328 | -31.7 | -41.5 | 245 | 33 |
| 2026-01-09T00:00 | 10851 | 250 | -47.8 | -52.4 | 230 | 40 |
| 2026-01-09T00:00 | 11000 | 244 | -48.4 | -57.2 | 229 | 41 |
| 2026-01-09T00:00 | 13000 | 179 | -57.2 | -77.3 | 237 | 54 |
| 2026-01-09T00:00 | 14099 | 150 | -62.7 | -84.8 | 244 | 52 |
| 2026-01-09T00:00 | 15000 | 129 | -69.2 | -86.5 | 242 | 48 |
| 2026-01-09T00:00 | 16527 | 100 | -69.9 | -90.9 | 254 | 15 |
| 2026-01-09T00:00 | 17000 | 92 | -73.9 | -90.9 | 220 | 16 |
| 2026-01-09T00:00 | 17823 | 80 | -77.1 | -92.4 | 237 | 16 |
| 2026-01-09T00:00 | 18595 | 70 | -74.9 | -91.9 | 230 | 11 |
| 2026-01-09T00:00 | 19000 | 65 | -73.3 | -90.7 | 207 | 2 |
| 2026-01-09T00:00 | 20574 | 50 | -70.9 | -91.5 | 308 | 4 |
| 2026-01-09T00:00 | 22000 | 40 | -63.1 | -91.5 | 89 | 3 |
| 2026-01-09T00:00 | 23690 | 30 | -63.2 | -91.3 | 43 | 5 |
| 2026-01-09T00:00 | 23701 | 30 | -59.9 | -90.0 | 308 | 5 |
| 2026-01-10T00:00 | 1369 | 867 | 16.3 | 16.0 | 50 | 2 |
| 2026-01-10T00:00 | 1500 | 854 | 18.4 | -3.7 | 5 | 3 |
| 2026-01-10T00:00 | 1541 | 850 | 18.4 | -3.0 | 20 | 4 |
| 2026-01-10T00:00 | 2327 | 775 | 14.3 | -1.9 | 176 | 2 |
| 2026-01-10T00:00 | 2500 | 759 | 12.9 | -1.5 | 201 | 3 |
| 2026-01-10T00:00 | 4000 | 632 | 2.2 | -10.2 | 213 | 14 |
| 2026-01-10T00:00 | 4422 | 600 | -1.8 | -10.8 | 218 | 15 |
| 2026-01-10T00:00 | 5500 | 523 | -10.3 | -11.6 | 250 | 18 |
| 2026-01-10T00:00 | 7000 | 429 | -18.6 | -19.5 | 240 | 27 |
| 2026-01-10T00:00 | 7517 | 400 | -22.5 | -25.0 | 233 | 31 |
| 2026-01-10T00:00 | 9000 | 326 | -33.3 | -38.1 | 233 | 34 |
| 2026-01-10T00:00 | 10790 | 250 | -49.2 | -53.8 | 237 | 39 |
| 2026-01-10T00:00 | 11000 | 242 | -50.3 | -53.5 | 242 | 42 |
| 2026-01-10T00:00 | 13000 | 177 | -57.8 | -78.0 | 237 | 61 |
| 2026-01-10T00:00 | 14035 | 150 | -63.0 | -84.4 | 248 | 55 |
| 2026-01-10T00:00 | 15000 | 128 | -65.7 | -88.0 | 259 | 45 |
| 2026-01-10T00:00 | 16481 | 100 | -71.9 | -90.8 | 247 | 30 |
| 2026-01-10T00:00 | 17000 | 92 | -74.9 | -91.0 | 247 | 25 |
| 2026-01-10T00:00 | 17778 | 80 | -75.4 | -91.7 | 264 | 17 |
| 2026-01-10T00:00 | 18558 | 70 | -72.3 | -90.6 | 229 | 9 |
| 2026-01-10T00:00 | 19000 | 65 | -72.4 | -90.5 | 246 | 14 |
| 2026-01-10T00:00 | 20551 | 50 | -68.5 | -90.5 | 218 | 4 |
| 2026-01-10T00:00 | 22000 | 39 | -64.2 | -91.1 | 323 | 2 |
| 2026-01-10T00:00 | 23660 | 30 | -64.5 | -91.4 | 267 | 3 |
| 2026-01-11T00:00 | 1369 | 868 | 13.3 | 24.0 | 50 | 3 |
| 2026-01-11T00:00 | 1500 | 855 | 18.6 | -6.1 | 6 | 3 |
| 2026-01-11T00:00 | 1549 | 850 | 18.3 | -6.3 | 6 | 3 |
| 2026-01-11T00:00 | 2330 | 775 | 11.9 | -9.8 | 292 | 6 |
| 2026-01-11T00:00 | 2500 | 759 | 10.4 | -7.6 | 277 | 5 |
| 2026-01-11T00:00 | 4000 | 631 | -2.4 | -7.4 | 237 | 11 |
| 2026-01-11T00:00 | 4400 | 600 | -5.3 | -8.8 | 229 | 14 |
| 2026-01-11T00:00 | 5500 | 521 | -12.3 | -17.5 | 228 | 24 |
| 2026-01-11T00:00 | 7000 | 427 | -19.4 | -55.8 | 245 | 27 |
| 2026-01-11T00:00 | 7487 | 400 | -23.2 | -63.8 | 243 | 31 |
| 2026-01-11T00:00 | 9000 | 324 | -35.4 | -59.5 | 247 | 35 |
| 2026-01-11T00:00 | 10748 | 250 | -47.1 | -68.2 | 253 | 43 |
| 2026-01-11T00:00 | 11000 | 241 | -48.6 | -66.4 | 252 | 45 |
| 2026-01-11T00:00 | 13000 | 177 | -57.7 | -80.0 | 241 | 60 |
| 2026-01-11T00:00 | 14017 | 150 | -62.9 | -83.6 | 253 | 55 |
| 2026-01-11T00:00 | 15000 | 128 | -66.7 | -88.9 | 256 | 41 |
| 2026-01-11T00:00 | 16462 | 100 | -72.6 | -89.8 | 254 | 32 |
| 2026-01-11T00:00 | 17000 | 91 | -73.0 | -90.9 | 256 | 28 |
| 2026-01-11T00:00 | 17767 | 80 | -72.5 | -91.4 | 266 | 28 |
| 2026-01-11T00:00 | 18553 | 70 | -71.4 | -90.9 | 283 | 11 |
| 2026-01-11T00:00 | 19000 | 65 | -71.4 | -90.8 | 255 | 11 |
| 2026-01-11T00:00 | 20565 | 50 | -67.5 | -91.3 | 325 | 4 |
| 2026-01-11T00:00 | 22000 | 40 | -63.3 | -92.7 | 242 | 6 |
| 2026-01-11T00:00 | 23670 | 30 | -58.3 | -89.9 | 244 | 12 |
| 2026-01-11T00:00 | 23689 | 30 | -62.2 | -91.9 | 315 | 7 |
| 2026-01-12T00:00 | 1369 | 868 | 9.1 | 22.0 | 9 | 2 |
| 2026-01-12T00:00 | 1500 | 855 | 16.8 | -7.7 | 108 | 4 |
| 2026-01-12T00:00 | 1548 | 850 | 16.5 | -7.9 | 113 | 4 |
| 2026-01-12T00:00 | 2326 | 775 | 11.0 | -7.2 | 260 | 3 |
| 2026-01-12T00:00 | 2500 | 759 | 9.3 | -7.5 | 258 | 3 |
| 2026-01-12T00:00 | 4000 | 630 | -3.9 | -9.1 | 213 | 11 |
| 2026-01-12T00:00 | 4389 | 600 | -3.7 | -48.7 | 227 | 11 |
| 2026-01-12T00:00 | 5500 | 521 | -7.1 | -49.2 | 260 | 20 |
| 2026-01-12T00:00 | 7000 | 428 | -19.7 | -45.1 | 260 | 22 |
| 2026-01-12T00:00 | 7493 | 400 | -23.4 | -50.5 | 263 | 19 |
| 2026-01-12T00:00 | 9000 | 324 | -35.6 | -61.1 | 263 | 26 |
| 2026-01-12T00:00 | 10754 | 250 | -48.5 | -60.6 | 261 | 39 |
| 2026-01-12T00:00 | 11000 | 241 | -50.0 | -64.2 | 260 | 40 |
| 2026-01-12T00:00 | 13000 | 176 | -57.0 | -79.8 | 254 | 41 |
| 2026-01-12T00:00 | 14012 | 150 | -60.8 | -84.2 | 256 | 51 |
| 2026-01-12T00:00 | 15000 | 128 | -65.0 | -87.6 | 270 | 40 |
| 2026-01-12T00:00 | 16471 | 100 | -73.1 | -90.0 | 258 | 32 |
| 2026-01-12T00:00 | 17000 | 91 | -76.0 | -90.6 | 265 | 26 |
| 2026-01-12T00:00 | 17759 | 80 | -75.9 | -90.6 | 279 | 24 |
| 2026-01-12T00:00 | 18544 | 70 | -70.4 | -89.7 | 253 | 15 |
| 2026-01-12T00:00 | 19000 | 65 | -70.7 | -89.9 | 263 | 12 |
| 2026-01-12T00:00 | 20553 | 50 | -70.1 | -90.7 | 262 | 7 |
| 2026-01-12T00:00 | 22000 | 39 | -63.0 | -90.7 | 258 | 8 |
| 2026-01-12T00:00 | 23690 | 30 | -60.1 | -89.2 | 279 | 7 |
| 2026-01-13T00:00 | 1369 | 868 | 15.7 | 18.0 | 100 | 2 |
| 2026-01-13T00:00 | 1500 | 855 | 15.5 | -6.6 | 91 | 5 |
| 2026-01-13T00:00 | 1545 | 850 | 15.8 | -6.6 | 93 | 7 |
| 2026-01-13T00:00 | 2322 | 775 | 11.4 | -6.1 | 317 | 1 |
| 2026-01-13T00:00 | 2500 | 759 | 9.9 | -5.1 | 166 | 1 |
| 2026-01-13T00:00 | 4000 | 631 | -0.1 | -21.4 | 226 | 13 |
| 2026-01-13T00:00 | 4397 | 600 | -3.3 | -12.8 | 231 | 15 |
| 2026-01-13T00:00 | 5500 | 522 | -7.6 | -21.0 | 235 | 18 |
| 2026-01-13T00:00 | 7000 | 428 | -20.9 | -23.0 | 244 | 20 |
| 2026-01-13T00:00 | 7495 | 400 | -22.6 | -25.2 | 240 | 22 |
| 2026-01-13T00:00 | 9000 | 324 | -33.3 | -36.5 | 252 | 34 |
| 2026-01-13T00:00 | 10754 | 250 | -48.5 | -60.6 | 261 | 39 |
| 2026-01-13T00:00 | 10772 | 250 | -47.2 | -51.4 | 249 | 47 |
| 2026-01-13T00:00 | 11000 | 242 | -49.2 | -53.3 | 250 | 46 |
| 2026-01-13T00:00 | 13000 | 176 | -59.0 | -77.6 | 232 | 57 |
| 2026-01-13T00:00 | 14018 | 150 | -57.2 | -86.4 | 239 | 46 |
| 2026-01-13T00:00 | 15000 | 128 | -64.2 | -89.3 | 240 | 40 |
| 2026-01-13T00:00 | 16485 | 100 | -73.0 | -90.9 | 238 | 20 |
| 2026-01-13T00:00 | 17000 | 92 | -73.6 | -91.1 | 276 | 19 |
| 2026-01-13T00:00 | 17785 | 80 | -75.3 | -90.8 | 300 | 11 |
| 2026-01-13T00:00 | 18557 | 70 | -74.4 | -90.6 | 241 | 16 |
| 2026-01-13T00:00 | 19000 | 65 | -73.3 | -90.5 | 271 | 9 |
| 2026-01-13T00:00 | 20539 | 50 | -68.7 | -91.6 | 200 | 5 |
| 2026-01-13T00:00 | 22000 | 39 | -62.2 | -91.5 | 286 | 2 |
| 2026-01-14T00:00 | 1369 | 866 | 15.8 | 20.0 | 110 | 5 |
| 2026-01-14T00:00 | 1500 | 853 | 16.4 | -5.6 | 108 | 9 |
| 2026-01-14T00:00 | 1531 | 850 | 16.2 | -5.7 | 107 | 9 |
| 2026-01-14T00:00 | 2307 | 775 | 11.1 | -8.5 | 169 | 4 |
| 2026-01-14T00:00 | 2500 | 757 | 9.5 | -8.3 | 208 | 5 |
| 2026-01-14T00:00 | 4000 | 630 | 0.5 | -25.9 | 195 | 17 |
| 2026-01-14T00:00 | 4385 | 600 | -1.9 | -24.7 | 225 | 15 |
| 2026-01-14T00:00 | 5500 | 520 | -10.3 | -24.7 | 219 | 18 |
| 2026-01-14T00:00 | 7000 | 426 | -22.9 | -23.7 | 229 | 29 |
| 2026-01-14T00:00 | 7461 | 400 | -25.3 | -51.0 | 231 | 30 |
| 2026-01-14T00:00 | 9000 | 322 | -35.6 | -38.1 | 227 | 39 |
| 2026-01-14T00:00 | 10720 | 250 | -48.4 | -52.9 | 237 | 54 |
| 2026-01-14T00:00 | 11000 | 240 | -50.9 | -56.9 | 239 | 55 |
| 2026-01-14T00:00 | 13000 | 176 | -56.5 | -82.1 | 221 | 60 |
| 2026-01-14T00:00 | 13981 | 150 | -59.7 | -89.3 | 236 | 55 |
| 2026-01-14T00:00 | 15000 | 127 | -63.2 | -92.0 | 237 | 39 |
| 2026-01-14T00:00 | 16450 | 100 | -72.7 | -91.9 | 222 | 26 |
| 2026-01-14T00:00 | 17000 | 91 | -72.6 | -93.9 | 206 | 24 |
| 2026-01-14T00:00 | 17762 | 80 | -72.4 | -92.8 | 208 | 13 |
| 2026-01-14T00:00 | 18549 | 70 | -72.0 | -92.1 | 204 | 9 |
| 2026-01-14T00:00 | 19000 | 65 | -72.8 | -92.0 | 217 | 8 |
| 2026-01-14T00:00 | 20554 | 50 | -67.7 | -92.9 | 234 | 2 |
| 2026-01-14T00:00 | 22000 | 39 | -63.9 | -94.9 | 299 | 7 |
| 2026-01-14T00:00 | 23692 | 30 | -60.3 | -94.7 | 262 | 8 |
| 2026-01-15T00:00 | 1369 | 866 | 10.7 | 22.0 | 310 | 1 |
| 2026-01-15T00:00 | 1500 | 853 | 15.9 | -7.0 | 261 | 3 |
| 2026-01-15T00:00 | 1531 | 850 | 15.6 | -7.1 | 262 | 4 |
| 2026-01-15T00:00 | 2306 | 775 | 9.9 | -8.4 | 247 | 7 |
| 2026-01-15T00:00 | 2500 | 757 | 8.1 | -8.8 | 243 | 6 |
| 2026-01-15T00:00 | 4000 | 629 | 0.4 | -34.2 | 274 | 23 |
| 2026-01-15T00:00 | 4376 | 600 | -0.6 | -36.5 | 248 | 25 |
| 2026-01-15T00:00 | 5500 | 520 | -8.3 | -50.7 | 269 | 24 |
| 2026-01-15T00:00 | 7000 | 427 | -20.6 | -53.9 | 270 | 26 |
| 2026-01-15T00:00 | 7472 | 400 | -24.1 | -56.6 | 268 | 28 |
| 2026-01-15T00:00 | 9000 | 323 | -36.8 | -63.1 | 272 | 29 |
| 2026-01-15T00:00 | 10713 | 250 | -50.0 | -67.8 | 246 | 39 |
| 2026-01-15T00:00 | 11000 | 239 | -51.4 | -70.5 | 249 | 44 |
| 2026-01-15T00:00 | 13000 | 175 | -58.9 | -83.5 | 244 | 48 |
| 2026-01-15T00:00 | 13953 | 150 | -62.4 | -86.3 | 257 | 43 |
| 2026-01-15T00:00 | 15000 | 126 | -67.4 | -87.9 | 247 | 46 |
| 2026-01-15T00:00 | 16414 | 100 | -67.7 | -88.0 | 256 | 32 |
| 2026-01-15T00:00 | 17000 | 91 | -69.9 | -89.1 | 240 | 24 |
| 2026-01-15T00:00 | 17744 | 80 | -70.3 | -90.4 | 228 | 19 |
| 2026-01-15T00:00 | 18539 | 70 | -69.5 | -90.8 | 278 | 12 |
| 2026-01-15T00:00 | 19000 | 65 | -71.9 | -91.1 | 256 | 7 |
| 2026-01-15T00:00 | 20546 | 50 | -63.4 | -91.2 | 276 | 4 |
| 2026-01-15T00:00 | 22000 | 39 | -65.2 | -90.9 | 294 | 9 |
| 2026-01-15T00:00 | 23670 | 30 | -63.7 | -92.0 | 299 | 2 |
| 2026-01-16T00:00 | 1369 | 865 | 7.6 | 26.0 | 20 | 3 |
| 2026-01-16T00:00 | 1500 | 852 | 13.7 | -8.7 | 311 | 5 |
| 2026-01-16T00:00 | 1516 | 850 | 13.6 | -8.5 | 311 | 5 |
| 2026-01-16T00:00 | 2288 | 775 | 11.7 | -34.8 | 211 | 2 |
| 2026-01-16T00:00 | 2500 | 756 | 10.9 | -41.1 | 228 | 1 |
| 2026-01-16T00:00 | 4000 | 629 | 1.8 | -35.2 | 267 | 12 |
| 2026-01-16T00:00 | 4382 | 600 | -1.0 | -28.1 | 275 | 14 |
| 2026-01-16T00:00 | 5500 | 521 | -8.4 | -40.3 | 267 | 16 |
| 2026-01-16T00:00 | 7000 | 427 | -19.4 | -51.8 | 251 | 18 |
| 2026-01-16T00:00 | 7485 | 400 | -23.3 | -55.4 | 251 | 20 |
| 2026-01-16T00:00 | 9000 | 323 | -36.0 | -60.3 | 242 | 23 |
| 2026-01-16T00:00 | 10735 | 250 | -48.7 | -69.2 | 252 | 29 |
| 2026-01-16T00:00 | 11000 | 240 | -50.6 | -72.3 | 253 | 29 |
| 2026-01-16T00:00 | 13000 | 175 | -60.3 | -79.6 | 255 | 35 |
| 2026-01-16T00:00 | 13959 | 150 | -62.7 | -85.1 | 256 | 32 |
| 2026-01-16T00:00 | 15000 | 127 | -66.1 | -88.6 | 248 | 36 |
| 2026-01-16T00:00 | 16403 | 100 | -70.0 | -88.1 | 253 | 26 |
| 2026-01-16T00:00 | 17000 | 90 | -70.0 | -91.2 | 243 | 22 |
| 2026-01-16T00:00 | 17728 | 80 | -70.7 | -90.2 | 244 | 16 |
| 2026-01-16T00:00 | 18516 | 70 | -71.5 | -90.4 | 233 | 13 |
| 2026-01-16T00:00 | 19000 | 65 | -68.5 | -91.7 | 239 | 7 |
| 2026-01-16T00:00 | 20530 | 50 | -66.9 | -92.5 | 259 | 5 |
| 2026-01-16T00:00 | 22000 | 39 | -64.2 | -92.6 | 160 | 3 |
| 2026-01-16T00:00 | 23666 | 30 | -60.4 | -92.4 | 263 | 7 |
| 2026-01-17T00:00 | 1369 | 863 | 8.5 | 22.0 | 50 | 2 |
| 2026-01-17T00:00 | 1496 | 850 | 14.8 | -7.7 | 271 | 3 |
| 2026-01-17T00:00 | 1500 | 850 | 14.8 | -7.7 | 270 | 3 |
| 2026-01-17T00:00 | 2269 | 775 | 8.8 | -11.6 | 231 | 11 |
| 2026-01-17T00:00 | 2500 | 754 | 7.2 | -11.2 | 245 | 15 |
| 2026-01-17T00:00 | 4000 | 627 | 0.5 | -33.2 | 233 | 18 |
| 2026-01-17T00:00 | 4346 | 600 | -1.7 | -36.0 | 234 | 21 |
| 2026-01-17T00:00 | 5500 | 518 | -9.9 | -41.8 | 238 | 23 |
| 2026-01-17T00:00 | 7000 | 425 | -20.4 | -53.9 | 238 | 28 |
| 2026-01-17T00:00 | 7437 | 400 | -23.1 | -53.9 | 241 | 30 |
| 2026-01-17T00:00 | 9000 | 321 | -35.6 | -45.8 | 239 | 37 |
| 2026-01-17T00:00 | 10708 | 250 | -46.3 | -66.7 | 259 | 49 |
| 2026-01-17T00:00 | 11000 | 239 | -48.8 | -66.8 | 260 | 50 |
| 2026-01-17T00:00 | 13000 | 175 | -61.0 | -76.8 | 270 | 52 |
| 2026-01-17T00:00 | 13933 | 150 | -64.1 | -87.6 | 250 | 49 |
| 2026-01-17T00:00 | 15000 | 126 | -66.7 | -89.8 | 247 | 45 |
| 2026-01-17T00:00 | 16380 | 100 | -68.0 | -90.7 | 258 | 26 |
| 2026-01-17T00:00 | 17000 | 90 | -69.0 | -90.6 | 242 | 19 |
| 2026-01-17T00:00 | 17708 | 80 | -72.3 | -91.2 | 222 | 19 |
| 2026-01-17T00:00 | 18497 | 70 | -71.0 | -91.0 | 241 | 17 |
| 2026-01-17T00:00 | 19000 | 64 | -71.9 | -91.6 | 246 | 13 |
| 2026-01-17T00:00 | 20510 | 50 | -66.1 | -92.7 | 214 | 10 |
| 2026-01-17T00:00 | 22000 | 39 | -62.7 | -93.2 | 241 | 6 |
| 2026-01-17T00:00 | 23656 | 30 | -60.3 | -93.0 | 247 | 9 |
| 2026-01-18T00:00 | 1369 | 859 | 8.3 | 22.0 | 30 | 2 |
| 2026-01-18T00:00 | 1460 | 850 | 15.0 | -9.0 | 248 | 3 |
| 2026-01-18T00:00 | 1500 | 846 | 15.1 | -9.1 | 251 | 4 |
| 2026-01-18T00:00 | 2235 | 775 | 10.5 | -10.8 | 227 | 16 |
| 2026-01-18T00:00 | 2500 | 751 | 8.2 | -11.0 | 226 | 17 |
| 2026-01-18T00:00 | 4000 | 624 | -0.5 | -29.7 | 238 | 29 |
| 2026-01-18T00:00 | 4308 | 600 | -2.8 | -32.1 | 238 | 30 |
| 2026-01-18T00:00 | 5500 | 515 | -11.1 | -41.5 | 236 | 33 |
| 2026-01-18T00:00 | 7000 | 422 | -20.5 | -52.6 | 246 | 34 |
| 2026-01-18T00:00 | 7394 | 400 | -23.6 | -54.8 | 252 | 37 |
| 2026-01-18T00:00 | 9000 | 319 | -36.0 | -60.7 | 249 | 41 |
| 2026-01-18T00:00 | 10661 | 250 | -45.7 | -65.0 | 261 | 61 |
| 2026-01-18T00:00 | 10708 | 250 | -46.3 | -66.7 | 259 | 49 |
| 2026-01-18T00:00 | 11000 | 238 | -48.2 | -63.8 | 260 | 62 |
| 2026-01-18T00:00 | 13000 | 174 | -62.8 | -77.8 | 257 | 54 |
| 2026-01-18T00:00 | 13885 | 150 | -67.4 | -78.8 | 254 | 61 |
| 2026-01-18T00:00 | 15000 | 125 | -67.8 | -88.1 | 262 | 54 |
| 2026-01-18T00:00 | 16320 | 100 | -67.4 | -90.2 | 261 | 39 |
| 2026-01-18T00:00 | 17000 | 89 | -69.6 | -90.5 | 252 | 34 |
| 2026-01-18T00:00 | 17647 | 80 | -74.0 | -90.9 | 243 | 35 |
| 2026-01-18T00:00 | 18439 | 70 | -71.5 | -89.8 | 249 | 36 |
| 2026-01-18T00:00 | 19000 | 64 | -67.1 | -89.9 | 235 | 29 |
| 2026-01-18T00:00 | 20490 | 50 | -67.3 | -90.4 | 205 | 12 |
| 2026-01-18T00:00 | 22000 | 39 | -61.1 | -89.7 | 251 | 12 |
| 2026-01-19T00:00 | 1369 | 859 | 6.9 | 44.0 | 320 | 4 |
| 2026-01-19T00:00 | 1454 | 850 | 6.3 | -2.9 | 314 | 7 |
| 2026-01-19T00:00 | 1500 | 845 | 5.9 | -3.0 | 316 | 9 |
| 2026-01-19T00:00 | 2204 | 775 | 2.5 | -13.1 | 284 | 14 |
| 2026-01-19T00:00 | 2500 | 747 | 5.7 | -36.5 | 269 | 19 |
| 2026-01-19T00:00 | 4000 | 621 | 0.7 | -33.1 | 242 | 30 |
| 2026-01-19T00:00 | 4279 | 600 | -0.5 | -42.0 | 248 | 32 |
| 2026-01-19T00:00 | 5500 | 514 | -8.9 | -44.3 | 247 | 33 |
| 2026-01-19T00:00 | 7000 | 422 | -19.3 | -47.4 | 256 | 37 |
| 2026-01-19T00:00 | 7388 | 400 | -23.0 | -48.8 | 259 | 37 |
| 2026-01-19T00:00 | 9000 | 319 | -34.0 | -56.9 | 255 | 47 |
| 2026-01-19T00:00 | 10660 | 250 | -48.7 | -62.3 | 261 | 50 |
| 2026-01-19T00:00 | 11000 | 237 | -51.4 | -65.7 | 264 | 49 |
| 2026-01-19T00:00 | 13000 | 173 | -63.7 | -77.0 | 261 | 59 |
| 2026-01-19T00:00 | 13881 | 150 | -60.9 | -85.6 | 260 | 45 |
| 2026-01-19T00:00 | 15000 | 125 | -66.7 | -88.2 | 253 | 42 |
| 2026-01-19T00:00 | 16343 | 100 | -70.5 | -89.7 | 249 | 46 |
| 2026-01-19T00:00 | 17000 | 89 | -74.7 | -90.8 | 257 | 45 |
| 2026-01-19T00:00 | 17643 | 80 | -75.2 | -90.4 | 265 | 37 |
| 2026-01-19T00:00 | 18428 | 70 | -68.6 | -88.9 | 263 | 27 |
| 2026-01-19T00:00 | 19000 | 64 | -63.5 | -89.3 | 249 | 27 |
| 2026-01-19T00:00 | 20488 | 50 | -63.5 | -89.2 | 256 | 18 |
| 2026-01-19T00:00 | 22000 | 39 | -64.1 | -90.6 | 275 | 21 |
| 2026-01-19T00:00 | 23660 | 30 | -58.2 | -87.2 | 312 | 9 |
| 2026-01-20T00:00 | 1369 | 861 | 7.2 | 39.0 | 330 | 4 |
| 2026-01-20T00:00 | 1473 | 850 | 6.6 | -4.9 | 315 | 8 |
| 2026-01-20T00:00 | 1500 | 847 | 6.4 | -4.9 | 319 | 9 |
| 2026-01-20T00:00 | 2231 | 775 | 5.8 | -17.0 | 152 | 3 |
| 2026-01-20T00:00 | 2500 | 750 | 3.8 | -19.2 | 156 | 3 |
| 2026-01-20T00:00 | 4000 | 622 | -2.9 | -43.2 | 260 | 23 |
| 2026-01-20T00:00 | 4282 | 600 | -4.3 | -31.4 | 256 | 27 |
| 2026-01-20T00:00 | 5500 | 513 | -12.4 | -42.5 | 251 | 35 |
| 2026-01-20T00:00 | 7000 | 420 | -20.2 | -41.0 | 237 | 47 |
| 2026-01-20T00:00 | 7361 | 400 | -22.3 | -24.3 | 239 | 51 |
| 2026-01-20T00:00 | 9000 | 318 | -36.0 | -40.6 | 251 | 52 |
| 2026-01-20T00:00 | 10633 | 250 | -45.4 | -51.3 | 252 | 77 |
| 2026-01-20T00:00 | 10660 | 250 | -48.7 | -62.3 | 261 | 50 |
| 2026-01-20T00:00 | 11000 | 237 | -47.2 | -59.1 | 253 | 79 |
| 2026-01-20T00:00 | 13000 | 173 | -63.5 | -71.7 | 252 | 81 |
| 2026-01-20T00:00 | 13866 | 150 | -63.4 | -85.2 | 255 | 68 |
| 2026-01-20T00:00 | 15000 | 125 | -67.5 | -88.3 | 255 | 55 |
| 2026-01-20T00:00 | 16309 | 100 | -70.4 | -89.2 | 259 | 49 |
| 2026-01-20T00:00 | 17000 | 89 | -72.1 | -90.1 | 255 | 36 |
| 2026-01-20T00:00 | 17628 | 80 | -68.0 | -89.8 | 246 | 32 |
| 2026-01-20T00:00 | 18430 | 70 | -66.8 | -88.5 | 259 | 24 |
| 2026-01-20T00:00 | 19000 | 64 | -67.5 | -88.7 | 267 | 21 |
| 2026-01-20T00:00 | 20475 | 50 | -61.3 | -88.6 | 245 | 26 |
| 2026-01-20T00:00 | 22000 | 39 | -58.6 | -88.7 | 266 | 19 |
| 2026-01-21T00:00 | 1369 | 863 | 4.4 | 29.0 | 8 | 2 |
| 2026-01-21T00:00 | 1492 | 850 | 7.6 | -10.5 | 353 | 4 |
| 2026-01-21T00:00 | 1500 | 849 | 7.7 | -10.6 | 353 | 4 |
| 2026-01-21T00:00 | 2249 | 775 | 4.5 | -24.1 | 326 | 9 |
| 2026-01-21T00:00 | 2500 | 751 | 3.4 | -20.9 | 321 | 10 |
| 2026-01-21T00:00 | 4000 | 623 | -4.2 | -42.2 | 290 | 16 |
| 2026-01-21T00:00 | 4295 | 600 | -6.3 | -45.9 | 287 | 20 |
| 2026-01-21T00:00 | 5500 | 513 | -11.5 | -44.4 | 279 | 28 |
| 2026-01-21T00:00 | 7000 | 420 | -24.4 | -42.7 | 270 | 36 |
| 2026-01-21T00:00 | 7352 | 400 | -27.4 | -46.2 | 270 | 36 |
| 2026-01-21T00:00 | 9000 | 316 | -39.5 | -61.7 | 261 | 46 |
| 2026-01-21T00:00 | 10578 | 250 | -46.9 | -69.1 | 255 | 71 |
| 2026-01-21T00:00 | 10660 | 250 | -48.7 | -62.3 | 261 | 50 |
| 2026-01-21T00:00 | 11000 | 235 | -49.8 | -73.3 | 256 | 68 |
| 2026-01-21T00:00 | 13000 | 171 | -61.3 | -80.9 | 249 | 72 |
| 2026-01-21T00:00 | 13822 | 150 | -61.6 | -85.5 | 254 | 63 |
| 2026-01-21T00:00 | 15000 | 124 | -65.8 | -88.1 | 250 | 56 |
| 2026-01-21T00:00 | 16299 | 100 | -65.7 | -89.1 | 248 | 36 |
| 2026-01-21T00:00 | 17000 | 89 | -67.5 | -88.8 | 257 | 36 |
| 2026-01-21T00:00 | 17644 | 80 | -68.6 | -88.8 | 252 | 30 |
| 2026-01-21T00:00 | 18440 | 70 | -69.4 | -89.1 | 258 | 31 |
| 2026-01-21T00:00 | 19000 | 64 | -65.9 | -89.3 | 277 | 21 |
| 2026-01-21T00:00 | 20503 | 50 | -57.2 | -87.9 | 240 | 22 |
| 2026-01-21T00:00 | 22000 | 39 | -61.2 | -89.6 | 268 | 17 |
| 2026-01-21T00:00 | 23683 | 30 | -55.8 | -87.8 | 273 | 12 |
| 2026-01-21T00:00 | 23689 | 30 | -62.2 | -91.9 | 315 | 7 |
| 2026-01-22T00:00 | 1369 | 865 | 6.0 | 23.0 | 360 | 2 |
| 2026-01-22T00:00 | 1500 | 851 | 10.1 | -11.7 | 345 | 6 |
| 2026-01-22T00:00 | 1512 | 850 | 10.1 | -11.8 | 346 | 6 |
| 2026-01-22T00:00 | 2277 | 775 | 7.8 | -18.4 | 307 | 8 |
| 2026-01-22T00:00 | 2500 | 754 | 8.8 | -17.8 | 277 | 4 |
| 2026-01-22T00:00 | 4000 | 627 | 1.7 | -27.8 | 308 | 15 |
| 2026-01-22T00:00 | 4357 | 600 | -0.1 | -22.9 | 301 | 14 |
| 2026-01-22T00:00 | 5500 | 519 | -10.4 | -26.7 | 307 | 18 |
| 2026-01-22T00:00 | 7000 | 425 | -19.9 | -42.9 | 306 | 23 |
| 2026-01-22T00:00 | 7452 | 400 | -23.3 | -47.9 | 295 | 23 |
| 2026-01-22T00:00 | 9000 | 322 | -35.9 | -58.8 | 286 | 21 |
| 2026-01-22T00:00 | 10705 | 250 | -49.1 | -64.0 | 322 | 18 |
| 2026-01-22T00:00 | 11000 | 239 | -51.2 | -65.2 | 304 | 17 |
| 2026-01-22T00:00 | 13000 | 174 | -57.6 | -84.3 | 267 | 38 |
| 2026-01-22T00:00 | 13931 | 150 | -62.5 | -88.0 | 267 | 32 |
| 2026-01-22T00:00 | 15000 | 126 | -69.2 | -89.0 | 268 | 30 |
| 2026-01-22T00:00 | 16353 | 100 | -71.4 | -89.1 | 259 | 33 |
| 2026-01-22T00:00 | 17000 | 90 | -70.3 | -89.3 | 259 | 37 |
| 2026-01-22T00:00 | 17675 | 80 | -71.1 | -90.2 | 275 | 33 |
| 2026-01-22T00:00 | 18475 | 70 | -65.6 | -91.5 | 258 | 16 |
| 2026-01-22T00:00 | 19000 | 64 | -65.4 | -91.5 | 251 | 22 |
| 2026-01-22T00:00 | 20519 | 50 | -66.6 | -91.8 | 252 | 18 |
| 2026-01-22T00:00 | 22000 | 39 | -61.3 | -92.0 | 250 | 19 |
| 2026-01-22T00:00 | 23683 | 30 | -55.8 | -87.8 | 273 | 12 |
| 2026-01-22T00:00 | 23684 | 30 | -57.0 | -91.6 | 256 | 7 |
| 2026-01-23T00:00 | 1369 | 866 | 9.0 | 15.0 | 120 | 3 |
| 2026-01-23T00:00 | 1500 | 853 | 13.0 | -12.7 | 162 | 4 |
| 2026-01-23T00:00 | 1525 | 850 | 13.0 | -12.6 | 171 | 4 |
| 2026-01-23T00:00 | 2294 | 775 | 10.2 | -13.0 | 234 | 5 |
| 2026-01-23T00:00 | 2500 | 756 | 10.7 | -16.9 | 240 | 6 |
| 2026-01-23T00:00 | 4000 | 630 | 2.3 | -16.7 | 294 | 9 |
| 2026-01-23T00:00 | 4389 | 600 | 0.2 | -21.9 | 284 | 11 |
| 2026-01-23T00:00 | 5500 | 521 | -6.8 | -30.3 | 268 | 9 |
| 2026-01-23T00:00 | 7000 | 428 | -17.9 | -44.7 | 250 | 8 |
| 2026-01-23T00:00 | 7504 | 400 | -22.3 | -47.9 | 235 | 9 |
| 2026-01-23T00:00 | 9000 | 325 | -34.7 | -54.9 | 248 | 11 |
| 2026-01-23T00:00 | 10767 | 250 | -48.7 | -69.5 | 244 | 18 |
| 2026-01-23T00:00 | 11000 | 241 | -49.8 | -73.6 | 246 | 22 |
| 2026-01-23T00:00 | 13000 | 176 | -60.9 | -78.8 | 250 | 39 |
| 2026-01-23T00:00 | 13987 | 150 | -66.1 | -85.6 | 250 | 44 |
| 2026-01-23T00:00 | 15000 | 127 | -69.2 | -87.2 | 260 | 35 |
| 2026-01-23T00:00 | 16403 | 100 | -71.6 | -88.1 | 261 | 25 |
| 2026-01-23T00:00 | 17000 | 90 | -72.3 | -88.6 | 255 | 23 |
| 2026-01-23T00:00 | 17716 | 80 | -72.3 | -89.4 | 255 | 19 |
| 2026-01-23T00:00 | 18504 | 70 | -70.7 | -91.0 | 265 | 19 |
| 2026-01-23T00:00 | 19000 | 64 | -66.8 | -91.9 | 275 | 13 |
| 2026-01-23T00:00 | 20548 | 50 | -66.1 | -91.7 | 248 | 14 |
| 2026-01-23T00:00 | 22000 | 39 | -60.9 | -94.2 | 278 | 15 |
| 2026-01-23T00:00 | 23691 | 30 | -57.4 | -91.7 | 257 | 6 |
| 2026-01-24T00:00 | 1369 | 865 | 10.0 | 15.0 | 320 | 3 |
| 2026-01-24T00:00 | 1500 | 851 | 13.4 | -7.9 | 288 | 10 |
| 2026-01-24T00:00 | 1514 | 850 | 13.4 | -8.0 | 288 | 11 |
| 2026-01-24T00:00 | 2282 | 775 | 7.7 | -6.3 | 279 | 17 |
| 2026-01-24T00:00 | 2500 | 755 | 7.1 | -11.6 | 278 | 16 |
| 2026-01-24T00:00 | 4000 | 627 | 1.1 | -36.7 | 265 | 18 |
| 2026-01-24T00:00 | 4356 | 600 | -1.1 | -33.9 | 262 | 21 |
| 2026-01-24T00:00 | 5500 | 519 | -10.0 | -36.2 | 246 | 24 |
| 2026-01-24T00:00 | 7000 | 425 | -21.8 | -38.9 | 257 | 25 |
| 2026-01-24T00:00 | 7443 | 400 | -25.7 | -44.4 | 254 | 24 |
| 2026-01-24T00:00 | 9000 | 321 | -35.8 | -67.3 | 249 | 34 |
| 2026-01-24T00:00 | 10704 | 250 | -45.7 | -69.3 | 250 | 50 |
| 2026-01-24T00:00 | 10767 | 250 | -48.7 | -69.5 | 244 | 18 |
| 2026-01-24T00:00 | 11000 | 239 | -48.2 | -70.0 | 252 | 50 |
| 2026-01-24T00:00 | 13000 | 175 | -58.1 | -83.0 | 243 | 52 |
| 2026-01-24T00:00 | 13968 | 150 | -62.3 | -86.1 | 243 | 43 |
| 2026-01-24T00:00 | 15000 | 127 | -68.3 | -88.0 | 249 | 40 |
| 2026-01-24T00:00 | 16404 | 100 | -72.9 | -90.0 | 258 | 32 |
| 2026-01-24T00:00 | 17000 | 90 | -73.2 | -89.8 | 246 | 25 |
| 2026-01-24T00:00 | 17710 | 80 | -72.5 | -89.0 | 248 | 24 |
| 2026-01-24T00:00 | 18494 | 70 | -68.9 | -91.5 | 259 | 25 |
| 2026-01-24T00:00 | 19000 | 64 | -63.2 | -91.5 | 287 | 17 |
| 2026-01-24T00:00 | 20542 | 50 | -64.8 | -92.2 | 224 | 19 |
| 2026-01-24T00:00 | 22000 | 39 | -61.3 | -92.0 | 248 | 16 |
| 2026-01-25T00:00 | 1369 | 868 | 4.0 | 11.0 | 110 | 2 |
| 2026-01-25T00:00 | 1500 | 854 | 14.2 | -21.6 | 18 | 1 |
| 2026-01-25T00:00 | 1542 | 850 | 13.8 | -21.6 | 8 | 1 |
| 2026-01-25T00:00 | 2311 | 775 | 7.2 | -15.0 | 218 | 3 |
| 2026-01-25T00:00 | 2500 | 757 | 5.6 | -19.5 | 274 | 2 |
| 2026-01-25T00:00 | 4000 | 629 | -0.5 | -30.6 | 317 | 17 |
| 2026-01-25T00:00 | 4370 | 600 | -3.1 | -31.0 | 315 | 20 |
| 2026-01-25T00:00 | 5500 | 519 | -10.7 | -40.3 | 286 | 22 |
| 2026-01-25T00:00 | 7000 | 425 | -22.8 | -52.5 | 279 | 27 |
| 2026-01-25T00:00 | 7441 | 400 | -26.7 | -54.1 | 282 | 26 |
| 2026-01-25T00:00 | 9000 | 321 | -38.1 | -64.5 | 271 | 37 |
| 2026-01-25T00:00 | 10670 | 250 | -48.9 | -68.9 | 264 | 45 |
| 2026-01-25T00:00 | 11000 | 238 | -51.2 | -68.1 | 263 | 50 |
| 2026-01-25T00:00 | 13000 | 174 | -57.7 | -83.2 | 267 | 54 |
| 2026-01-25T00:00 | 13931 | 150 | -60.2 | -85.4 | 269 | 50 |
| 2026-01-25T00:00 | 15000 | 126 | -66.7 | -88.1 | 264 | 43 |
| 2026-01-25T00:00 | 16385 | 100 | -69.4 | -91.5 | 259 | 37 |
| 2026-01-25T00:00 | 17000 | 90 | -73.3 | -91.1 | 263 | 36 |
| 2026-01-25T00:00 | 17705 | 80 | -69.2 | -90.4 | 257 | 32 |
| 2026-01-25T00:00 | 18503 | 70 | -67.7 | -89.8 | 280 | 23 |
| 2026-01-25T00:00 | 19000 | 65 | -68.0 | -89.8 | 269 | 14 |
| 2026-01-25T00:00 | 20542 | 50 | -62.3 | -89.3 | 266 | 19 |
| 2026-01-25T00:00 | 22000 | 39 | -63.3 | -90.5 | 265 | 16 |
| 2026-01-25T00:00 | 23684 | 30 | -57.0 | -91.6 | 256 | 7 |
| 2026-01-25T00:00 | 23695 | 30 | -57.8 | -88.1 | 301 | 8 |
| 2026-01-26T00:00 | 1369 | 869 | 5.5 | 9.0 | 40 | 2 |
| 2026-01-26T00:00 | 1500 | 856 | 13.6 | -18.7 | 195 | 2 |
| 2026-01-26T00:00 | 1558 | 850 | 13.3 | -18.9 | 202 | 3 |
| 2026-01-26T00:00 | 2326 | 775 | 8.4 | -22.4 | 305 | 2 |
| 2026-01-26T00:00 | 2500 | 759 | 7.3 | -23.5 | 311 | 2 |
| 2026-01-26T00:00 | 4000 | 631 | 0.1 | -32.7 | 8 | 4 |
| 2026-01-26T00:00 | 4404 | 600 | -3.3 | -40.0 | 13 | 4 |
| 2026-01-26T00:00 | 5500 | 521 | -12.3 | -56.7 | 26 | 11 |
| 2026-01-26T00:00 | 7000 | 426 | -23.4 | -60.9 | 10 | 6 |
| 2026-01-26T00:00 | 7461 | 400 | -24.9 | -61.0 | 303 | 14 |
| 2026-01-26T00:00 | 9000 | 322 | -36.5 | -67.2 | 284 | 15 |
| 2026-01-26T00:00 | 10707 | 250 | -48.4 | -68.7 | 275 | 36 |
| 2026-01-26T00:00 | 11000 | 239 | -48.0 | -71.2 | 269 | 39 |
| 2026-01-26T00:00 | 13000 | 176 | -56.1 | -82.8 | 274 | 42 |
| 2026-01-26T00:00 | 13989 | 150 | -61.2 | -86.2 | 274 | 39 |
| 2026-01-26T00:00 | 15000 | 127 | -65.4 | -89.4 | 275 | 36 |
| 2026-01-26T00:00 | 16435 | 100 | -71.6 | -90.8 | 270 | 25 |
| 2026-01-26T00:00 | 17000 | 91 | -75.6 | -91.9 | 282 | 29 |
| 2026-01-26T00:00 | 17734 | 80 | -71.1 | -90.0 | 306 | 17 |
| 2026-01-26T00:00 | 18526 | 70 | -71.5 | -89.8 | 275 | 16 |
| 2026-01-26T00:00 | 19000 | 65 | -68.2 | -90.4 | 266 | 12 |
| 2026-01-26T00:00 | 20554 | 50 | -65.6 | -91.0 | 242 | 14 |
| 2026-01-26T00:00 | 22000 | 40 | -61.3 | -91.7 | 257 | 13 |
| 2026-01-26T00:00 | 23713 | 30 | -57.8 | -89.1 | 210 | 13 |
| 2026-01-27T00:00 | 1369 | 870 | 5.8 | 8.0 | 60 | 2 |
| 2026-01-27T00:00 | 1500 | 856 | 14.5 | -17.9 | 202 | 2 |
| 2026-01-27T00:00 | 1561 | 850 | 14.0 | -17.8 | 205 | 2 |
| 2026-01-27T00:00 | 2332 | 775 | 13.0 | -25.4 | 334 | 1 |
| 2026-01-27T00:00 | 2500 | 760 | 12.1 | -31.3 | 266 | 2 |
| 2026-01-27T00:00 | 4000 | 633 | 2.8 | -40.6 | 16 | 1 |
| 2026-01-27T00:00 | 4431 | 600 | -0.7 | -43.0 | 43 | 3 |
| 2026-01-27T00:00 | 5500 | 524 | -9.3 | -50.8 | 4 | 4 |
| 2026-01-27T00:00 | 7000 | 429 | -20.7 | -59.7 | 298 | 10 |
| 2026-01-27T00:00 | 7520 | 400 | -24.8 | -61.5 | 283 | 12 |
| 2026-01-27T00:00 | 9000 | 325 | -34.8 | -39.1 | 271 | 21 |
| 2026-01-27T00:00 | 10778 | 250 | -48.7 | -53.8 | 266 | 38 |
| 2026-01-27T00:00 | 11000 | 242 | -50.7 | -54.3 | 274 | 41 |
| 2026-01-27T00:00 | 13000 | 177 | -55.8 | -81.3 | 269 | 28 |
| 2026-01-27T00:00 | 14040 | 150 | -62.2 | -85.0 | 258 | 32 |
| 2026-01-27T00:00 | 15000 | 128 | -67.1 | -88.0 | 269 | 29 |
| 2026-01-27T00:00 | 16467 | 100 | -73.1 | -90.4 | 264 | 18 |
| 2026-01-27T00:00 | 17000 | 91 | -74.3 | -90.5 | 254 | 19 |
| 2026-01-27T00:00 | 17767 | 80 | -74.6 | -90.5 | 271 | 15 |
| 2026-01-27T00:00 | 18548 | 70 | -71.5 | -89.7 | 248 | 10 |
| 2026-01-27T00:00 | 19000 | 65 | -69.5 | -90.3 | 268 | 11 |
| 2026-01-27T00:00 | 20568 | 50 | -66.3 | -91.2 | 242 | 10 |
| 2026-01-27T00:00 | 22000 | 40 | -64.8 | -91.0 | 259 | 13 |
| 2026-01-27T00:00 | 23726 | 30 | -54.8 | -86.9 | 206 | 7 |
| 2026-01-28T00:00 | 1369 | 869 | 6.0 | 9.0 | 30 | 2 |
| 2026-01-28T00:00 | 1500 | 856 | 15.7 | -18.2 | 327 | 3 |
| 2026-01-28T00:00 | 1557 | 850 | 15.8 | -18.1 | 328 | 3 |
| 2026-01-28T00:00 | 2335 | 775 | 13.2 | -40.6 | 183 | 3 |
| 2026-01-28T00:00 | 2500 | 760 | 12.3 | -38.8 | 206 | 1 |
| 2026-01-28T00:00 | 4000 | 633 | 3.3 | -44.8 | 146 | 5 |
| 2026-01-28T00:00 | 4432 | 600 | 0.7 | -46.3 | 142 | 1 |
| 2026-01-28T00:00 | 5500 | 524 | -8.2 | -36.0 | 262 | 2 |
| 2026-01-28T00:00 | 7000 | 430 | -21.2 | -30.0 | 172 | 4 |
| 2026-01-28T00:00 | 7527 | 400 | -23.2 | -30.2 | 254 | 5 |
| 2026-01-28T00:00 | 9000 | 325 | -35.7 | -48.2 | 256 | 11 |
| 2026-01-28T00:00 | 10775 | 250 | -50.1 | -66.0 | 253 | 27 |
| 2026-01-28T00:00 | 11000 | 242 | -51.6 | -66.9 | 256 | 29 |
| 2026-01-28T00:00 | 13000 | 177 | -56.0 | -83.4 | 256 | 39 |
| 2026-01-28T00:00 | 14021 | 150 | -60.7 | -85.4 | 258 | 39 |
| 2026-01-28T00:00 | 15000 | 128 | -66.4 | -87.5 | 258 | 31 |
| 2026-01-28T00:00 | 16465 | 100 | -72.5 | -91.0 | 240 | 21 |
| 2026-01-28T00:00 | 17000 | 91 | -72.8 | -91.6 | 261 | 21 |
| 2026-01-28T00:00 | 17776 | 80 | -73.0 | -90.9 | 276 | 13 |
| 2026-01-28T00:00 | 18560 | 70 | -72.2 | -90.4 | 260 | 13 |
| 2026-01-28T00:00 | 19000 | 65 | -71.4 | -90.0 | 280 | 13 |
| 2026-01-28T00:00 | 20573 | 50 | -66.4 | -90.7 | 220 | 11 |
| 2026-01-28T00:00 | 22000 | 40 | -63.4 | -91.0 | 282 | 10 |
| 2026-01-28T00:00 | 23729 | 30 | -58.8 | -89.4 | 329 | 7 |
| 2026-01-29T00:00 | 1369 | 867 | 9.2 | 8.0 | 7 | 2 |
| 2026-01-29T00:00 | 1500 | 854 | 16.1 | -18.4 | 83 | 2 |
| 2026-01-29T00:00 | 1540 | 850 | 16.2 | -18.5 | 68 | 2 |
| 2026-01-29T00:00 | 2319 | 775 | 12.9 | -27.4 | 183 | 3 |
| 2026-01-29T00:00 | 2500 | 758 | 11.1 | -27.8 | 183 | 4 |
| 2026-01-29T00:00 | 4000 | 632 | 4.4 | -45.2 | 151 | 5 |
| 2026-01-29T00:00 | 4415 | 600 | 1.3 | -48.0 | 166 | 6 |
| 2026-01-29T00:00 | 5500 | 523 | -7.3 | -29.1 | 203 | 2 |
| 2026-01-29T00:00 | 7000 | 429 | -18.7 | -28.5 | 200 | 7 |
| 2026-01-29T00:00 | 7523 | 400 | -22.8 | -30.5 | 260 | 7 |
| 2026-01-29T00:00 | 9000 | 325 | -35.2 | -37.0 | 234 | 15 |
| 2026-01-29T00:00 | 10773 | 250 | -50.1 | -59.5 | 244 | 16 |
| 2026-01-29T00:00 | 11000 | 241 | -51.6 | -62.5 | 255 | 12 |
| 2026-01-29T00:00 | 13000 | 177 | -56.2 | -81.9 | 242 | 44 |
| 2026-01-29T00:00 | 14031 | 150 | -59.8 | -87.0 | 246 | 35 |
| 2026-01-29T00:00 | 15000 | 128 | -65.8 | -88.3 | 253 | 33 |
| 2026-01-29T00:00 | 16484 | 100 | -72.6 | -90.6 | 269 | 24 |
| 2026-01-29T00:00 | 17000 | 92 | -74.0 | -90.7 | 252 | 17 |
| 2026-01-29T00:00 | 17787 | 80 | -74.1 | -90.5 | 247 | 15 |
| 2026-01-29T00:00 | 18567 | 70 | -72.5 | -90.3 | 299 | 8 |
| 2026-01-29T00:00 | 19000 | 65 | -71.6 | -90.6 | 280 | 6 |
| 2026-01-29T00:00 | 20571 | 50 | -65.2 | -92.4 | 224 | 7 |
| 2026-01-29T00:00 | 22000 | 40 | -64.5 | -92.6 | 274 | 8 |
| 2026-01-29T00:00 | 23716 | 30 | -61.9 | -90.9 | 16 | 1 |
| 2026-01-30T00:00 | 1369 | 866 | 8.4 | 8.0 | 36 | 2 |
| 2026-01-30T00:00 | 1500 | 853 | 16.2 | -18.6 | 327 | 9 |
| 2026-01-30T00:00 | 1530 | 850 | 16.1 | -18.5 | 327 | 10 |
| 2026-01-30T00:00 | 2308 | 775 | 11.5 | -23.7 | 317 | 6 |
| 2026-01-30T00:00 | 2500 | 757 | 10.4 | -24.9 | 294 | 7 |
| 2026-01-30T00:00 | 4000 | 630 | 0.7 | -25.4 | 190 | 4 |
| 2026-01-30T00:00 | 4389 | 600 | -1.3 | -17.7 | 240 | 2 |
| 2026-01-30T00:00 | 5500 | 521 | -9.3 | -27.3 | 347 | 4 |
| 2026-01-30T00:00 | 7000 | 427 | -19.1 | -45.3 | 13 | 15 |
| 2026-01-30T00:00 | 7485 | 400 | -23.7 | -42.1 | 20 | 12 |
| 2026-01-30T00:00 | 9000 | 323 | -36.8 | -47.6 | 23 | 18 |
| 2026-01-30T00:00 | 10728 | 250 | -49.7 | -66.9 | 44 | 16 |
| 2026-01-30T00:00 | 11000 | 240 | -50.7 | -70.4 | 53 | 11 |
| 2026-01-30T00:00 | 13000 | 176 | -56.3 | -83.8 | 241 | 16 |
| 2026-01-30T00:00 | 13994 | 150 | -57.8 | -87.0 | 255 | 15 |
| 2026-01-30T00:00 | 15000 | 128 | -62.5 | -87.5 | 264 | 19 |
| 2026-01-30T00:00 | 16483 | 100 | -69.7 | -90.4 | 285 | 13 |
| 2026-01-30T00:00 | 17000 | 92 | -71.0 | -91.1 | 257 | 12 |
| 2026-01-30T00:00 | 17798 | 80 | -74.6 | -90.9 | 266 | 14 |
| 2026-01-30T00:00 | 18575 | 70 | -72.8 | -90.2 | 273 | 13 |
| 2026-01-30T00:00 | 19000 | 65 | -70.3 | -90.0 | 265 | 6 |
| 2026-01-30T00:00 | 20576 | 50 | -67.4 | -91.2 | 262 | 4 |
| 2026-01-30T00:00 | 22000 | 40 | -64.5 | -92.6 | 274 | 8 |
| 2026-01-31T00:00 | 1369 | 865 | 9.9 | 19.0 | 10 | 3 |
| 2026-01-31T00:00 | 1500 | 852 | 17.9 | -10.3 | 42 | 2 |
| 2026-01-31T00:00 | 1516 | 850 | 18.0 | -10.5 | 48 | 2 |
| 2026-01-31T00:00 | 2297 | 775 | 12.4 | -21.9 | 96 | 5 |
| 2026-01-31T00:00 | 2500 | 756 | 11.2 | -21.8 | 138 | 2 |
| 2026-01-31T00:00 | 4000 | 630 | 3.1 | -31.8 | 298 | 12 |
| 2026-01-31T00:00 | 4393 | 600 | 1.0 | -25.8 | 288 | 15 |
| 2026-01-31T00:00 | 5500 | 522 | -6.8 | -36.7 | 278 | 18 |
| 2026-01-31T00:00 | 7000 | 428 | -18.5 | -47.1 | 288 | 23 |
| 2026-01-31T00:00 | 7507 | 400 | -22.8 | -49.8 | 290 | 24 |
| 2026-01-31T00:00 | 9000 | 325 | -35.5 | -52.6 | 292 | 21 |
| 2026-01-31T00:00 | 10763 | 250 | -48.7 | -60.2 | 286 | 22 |
| 2026-01-31T00:00 | 11000 | 241 | -50.4 | -67.4 | 275 | 20 |
| 2026-01-31T00:00 | 13000 | 176 | -59.0 | -85.3 | 269 | 30 |
| 2026-01-31T00:00 | 13989 | 150 | -59.6 | -86.6 | 285 | 22 |
| 2026-01-31T00:00 | 15000 | 127 | -63.2 | -89.6 | 282 | 22 |
| 2026-01-31T00:00 | 16463 | 100 | -69.8 | -90.5 | 262 | 22 |
| 2026-01-31T00:00 | 17000 | 91 | -72.7 | -91.5 | 281 | 24 |
| 2026-01-31T00:00 | 17775 | 80 | -74.2 | -91.2 | 269 | 12 |
| 2026-01-31T00:00 | 18554 | 70 | -73.5 | -91.0 | 291 | 11 |
| 2026-01-31T00:00 | 19000 | 65 | -73.4 | -90.9 | 252 | 12 |
| 2026-01-31T00:00 | 20559 | 50 | -64.6 | -91.0 | 233 | 10 |
| 2026-01-31T00:00 | 22000 | 40 | -64.5 | -92.6 | 274 | 8 |
